Time,TemperatureF,DewpointF,PressureIn,WindDirection,WindDirectionDegrees,WindSpeedMPH,WindSpeedGustMPH,Humidity,HourlyPrecipIn,Conditions,Clouds,dailyrainin,SoftwareType,DateUTC
2013-11-24 00:01:00,69.8,64.1,30.00,North,0,0.0,0.0,82,0.00,,,0.00,WUHU216HW,2013-11-24 05:01:00,
2013-11-24 00:02:00,69.8,64.1,30.00,North,0,0.0,0.0,82,0.00,,,0.00,WUHU216HW,2013-11-24 05:02:00,
2013-11-24 00:07:00,69.7,63.9,30.00,North,0,0.0,0.0,82,0.00,,,0.00,WUHU216HW,2013-11-24 05:07:00,
2013-11-24 00:12:00,69.7,64.3,30.00,North,0,0.0,0.0,83,0.00,,,0.00,WUHU216HW,2013-11-24 05:12:00,
2013-11-24 00:17:00,69.7,64.3,30.00,North,0,0.0,0.0,83,0.00,,,0.00,WUHU216HW,2013-11-24 05:17:00,
2013-11-24 00:22:00,69.7,64.3,30.00,North,0,0.0,0.0,83,0.00,,,0.00,WUHU216HW,2013-11-24 05:22:00,
2013-11-24 00:27:00,69.7,64.3,30.00,North,0,0.0,0.0,83,0.00,,,0.00,WUHU216HW,2013-11-24 05:27:00,
2013-11-24 00:32:00,69.5,64.1,29.99,North,0,0.0,0.0,83,0.00,,,0.00,WUHU216HW,2013-11-24 05:32:00,
2013-11-24 00:37:00,69.5,64.1,29.99,North,0,0.0,0.0,83,0.00,,,0.00,WUHU216HW,2013-11-24 05:37:00,
2013-11-24 00:42:00,69.5,64.1,29.99,North,0,0.0,0.0,83,0.00,,,0.00,WUHU216HW,2013-11-24 05:42:00,
2013-11-24 00:47:00,69.3,63.9,29.99,North,0,0.0,0.0,83,0.00,,,0.00,WUHU216HW,2013-11-24 05:47:00,
2013-11-24 00:52:00,69.3,63.9,29.99,North,0,0.0,0.0,83,0.00,,,0.00,WUHU216HW,2013-11-24 05:52:00,
2013-11-24 00:57:00,69.3,63.9,29.99,North,0,0.0,0.0,83,0.00,,,0.00,WUHU216HW,2013-11-24 05:57:00,
2013-11-24 01:02:00,69.3,63.9,29.99,North,0,0.0,0.0,83,0.00,,,0.00,WUHU216HW,2013-11-24 06:02:00,
2013-11-24 01:07:00,69.1,63.7,29.99,North,0,0.0,0.0,83,0.00,,,0.00,WUHU216HW,2013-11-24 06:07:00,
2013-11-24 01:12:00,69.1,63.7,30.00,North,0,0.0,0.0,83,0.00,,,0.00,WUHU216HW,2013-11-24 06:12:00,
2013-11-24 01:17:00,69.1,63.7,30.00,North,0,0.0,0.0,83,0.00,,,0.00,WUHU216HW,2013-11-24 06:17:00,
2013-11-24 01:22:00,69.1,64.1,30.00,North,0,0.0,0.0,84,0.00,,,0.00,WUHU216HW,2013-11-24 06:22:00,
2013-11-24 01:27:00,68.9,63.9,30.00,North,0,0.0,0.0,84,0.00,,,0.00,WUHU216HW,2013-11-24 06:27:00,
2013-11-24 01:32:00,68.9,63.9,30.00,North,0,0.0,0.0,84,0.00,,,0.00,WUHU216HW,2013-11-24 06:32:00,
2013-11-24 01:37:00,68.8,63.7,30.00,North,0,0.0,0.0,84,0.00,,,0.00,WUHU216HW,2013-11-24 06:37:00,
2013-11-24 01:42:00,68.8,63.7,29.99,North,0,0.0,0.0,84,0.00,,,0.00,WUHU216HW,2013-11-24 06:42:00,
2013-11-24 01:47:00,68.9,63.9,29.99,North,0,0.0,0.0,84,0.00,,,0.00,WUHU216HW,2013-11-24 06:47:00,
2013-11-24 01:52:00,68.9,63.9,29.99,North,0,0.0,0.0,84,0.00,,,0.00,WUHU216HW,2013-11-24 06:52:00,
2013-11-24 01:57:00,68.9,63.9,30.00,North,0,0.0,0.0,84,0.00,,,0.00,WUHU216HW,2013-11-24 06:57:00,
2013-11-24 02:02:00,68.9,63.9,30.00,North,0,0.0,0.0,84,0.00,,,0.00,WUHU216HW,2013-11-24 07:02:00,
2013-11-24 02:07:00,68.9,63.9,30.00,North,0,0.0,0.0,84,0.00,,,0.00,WUHU216HW,2013-11-24 07:07:00,
2013-11-24 02:12:00,69.1,64.1,29.99,North,0,0.0,0.0,84,0.00,,,0.00,WUHU216HW,2013-11-24 07:12:00,
2013-11-24 02:17:00,69.1,64.1,29.99,North,0,0.0,0.0,84,0.00,,,0.00,WUHU216HW,2013-11-24 07:17:00,
2013-11-24 02:22:00,69.1,64.4,30.00,North,0,0.0,0.0,85,0.00,,,0.00,WUHU216HW,2013-11-24 07:22:00,
2013-11-24 02:27:00,69.1,64.4,30.00,North,0,0.0,0.0,85,0.00,,,0.00,WUHU216HW,2013-11-24 07:27:00,
2013-11-24 02:32:00,69.1,64.4,30.00,North,0,0.0,0.0,85,0.00,,,0.00,WUHU216HW,2013-11-24 07:32:00,
2013-11-24 02:37:00,69.1,64.4,30.00,North,0,0.0,0.0,85,0.00,,,0.00,WUHU216HW,2013-11-24 07:37:00,
2013-11-24 02:42:00,68.9,64.3,30.00,North,0,0.0,0.0,85,0.00,,,0.00,WUHU216HW,2013-11-24 07:42:00,
2013-11-24 02:47:00,69.1,64.4,29.99,North,0,0.0,0.0,85,0.00,,,0.00,WUHU216HW,2013-11-24 07:47:00,
2013-11-24 02:52:00,68.9,64.3,29.99,North,0,0.0,0.0,85,0.00,,,0.00,WUHU216HW,2013-11-24 07:52:00,
2013-11-24 02:57:00,69.1,64.4,29.99,North,0,0.0,0.0,85,0.00,,,0.00,WUHU216HW,2013-11-24 07:57:00,
2013-11-24 03:02:00,69.1,64.4,29.99,North,0,0.0,0.0,85,0.00,,,0.00,WUHU216HW,2013-11-24 08:02:00,
2013-11-24 03:07:00,68.9,64.3,29.99,North,0,0.0,0.0,85,0.00,,,0.00,WUHU216HW,2013-11-24 08:07:00,
2013-11-24 03:12:00,68.9,64.3,29.99,North,0,0.0,0.0,85,0.00,,,0.00,WUHU216HW,2013-11-24 08:12:00,
2013-11-24 03:17:00,68.9,64.3,29.99,North,0,0.0,0.0,85,0.00,,,0.00,WUHU216HW,2013-11-24 08:17:00,
2013-11-24 03:22:00,68.9,64.3,29.99,North,0,0.0,0.0,85,0.00,,,0.00,WUHU216HW,2013-11-24 08:22:00,
2013-11-24 03:27:00,68.9,64.3,29.99,North,0,0.0,0.0,85,0.00,,,0.00,WUHU216HW,2013-11-24 08:27:00,
2013-11-24 03:32:00,68.9,64.3,29.98,North,0,0.0,0.0,85,0.00,,,0.00,WUHU216HW,2013-11-24 08:32:00,
2013-11-24 03:37:00,68.9,64.3,29.99,North,0,0.0,0.0,85,0.00,,,0.00,WUHU216HW,2013-11-24 08:37:00,
2013-11-24 03:42:00,68.8,64.1,29.99,North,0,0.0,0.0,85,0.00,,,0.00,WUHU216HW,2013-11-24 08:42:00,
2013-11-24 03:47:00,68.8,64.1,29.99,North,0,0.0,0.0,85,0.00,,,0.00,WUHU216HW,2013-11-24 08:47:00,
2013-11-24 03:52:00,68.8,64.1,29.99,North,0,0.0,0.0,85,0.00,,,0.00,WUHU216HW,2013-11-24 08:52:00,
2013-11-24 03:57:00,68.8,64.1,29.98,North,0,0.0,0.0,85,0.00,,,0.00,WUHU216HW,2013-11-24 08:57:00,
2013-11-24 04:02:00,68.8,64.4,29.98,North,0,0.0,0.0,86,0.00,,,0.00,WUHU216HW,2013-11-24 09:02:00,
2013-11-24 04:07:00,68.8,64.4,29.99,North,0,0.0,0.0,86,0.00,,,0.00,WUHU216HW,2013-11-24 09:07:00,
2013-11-24 04:12:00,68.8,64.4,29.99,North,0,0.0,0.0,86,0.00,,,0.00,WUHU216HW,2013-11-24 09:12:00,
2013-11-24 04:17:00,68.8,64.4,29.99,North,0,0.0,0.0,86,0.00,,,0.00,WUHU216HW,2013-11-24 09:17:00,
2013-11-24 04:22:00,68.8,64.4,29.99,North,0,0.0,0.0,86,0.00,,,0.00,WUHU216HW,2013-11-24 09:22:00,
2013-11-24 04:27:00,68.8,64.4,29.99,North,0,0.0,0.0,86,0.00,,,0.00,WUHU216HW,2013-11-24 09:27:00,
2013-11-24 04:32:00,68.8,64.4,29.99,North,0,0.0,0.0,86,0.00,,,0.00,WUHU216HW,2013-11-24 09:32:00,
2013-11-24 04:37:00,68.8,64.4,29.99,North,0,0.0,0.0,86,0.00,,,0.00,WUHU216HW,2013-11-24 09:37:00,
2013-11-24 04:42:00,68.8,64.4,29.99,North,0,0.0,0.0,86,0.00,,,0.00,WUHU216HW,2013-11-24 09:42:00,
2013-11-24 04:47:00,68.8,64.4,29.99,North,0,0.0,0.0,86,0.00,,,0.00,WUHU216HW,2013-11-24 09:47:00,
2013-11-24 04:52:00,68.8,64.4,29.99,North,0,0.0,0.0,86,0.00,,,0.00,WUHU216HW,2013-11-24 09:52:00,
2013-11-24 04:57:00,68.6,64.2,29.99,North,0,0.0,0.0,86,0.00,,,0.00,WUHU216HW,2013-11-24 09:57:00,
2013-11-24 05:02:00,68.6,64.2,29.99,North,0,0.0,0.0,86,0.00,,,0.00,WUHU216HW,2013-11-24 10:02:00,
2013-11-24 05:07:00,68.6,64.2,30.00,North,0,0.0,0.0,86,0.00,,,0.00,WUHU216HW,2013-11-24 10:07:00,
2013-11-24 05:12:00,68.6,64.2,30.00,North,0,0.0,0.0,86,0.00,,,0.00,WUHU216HW,2013-11-24 10:12:00,
2013-11-24 05:17:00,68.4,64.4,30.00,North,0,0.0,0.0,87,0.00,,,0.00,WUHU216HW,2013-11-24 10:17:00,
2013-11-24 05:22:00,68.4,64.4,30.00,North,0,0.0,0.0,87,0.00,,,0.00,WUHU216HW,2013-11-24 10:22:00,
2013-11-24 05:27:00,68.4,64.4,30.01,North,0,0.0,0.0,87,0.00,,,0.00,WUHU216HW,2013-11-24 10:27:00,
2013-11-24 05:32:00,68.2,64.2,30.01,North,0,0.0,0.0,87,0.00,,,0.00,WUHU216HW,2013-11-24 10:32:00,
2013-11-24 05:37:00,68.2,64.2,30.01,North,0,0.0,0.0,87,0.00,,,0.00,WUHU216HW,2013-11-24 10:37:00,
2013-11-24 05:42:00,68.0,63.7,30.02,North,0,0.0,0.0,86,0.00,,,0.00,WUHU216HW,2013-11-24 10:42:00,
2013-11-24 05:47:00,67.9,63.6,30.02,North,0,0.0,0.0,86,0.00,,,0.00,WUHU216HW,2013-11-24 10:47:00,
2013-11-24 05:52:00,67.7,63.4,30.02,North,0,0.0,0.0,86,0.00,,,0.00,WUHU216HW,2013-11-24 10:52:00,
2013-11-24 05:57:00,67.5,63.2,30.02,North,0,0.0,0.0,86,0.00,,,0.00,WUHU216HW,2013-11-24 10:57:00,
2013-11-24 06:02:00,67.3,63.0,30.02,North,0,0.0,0.0,86,0.00,,,0.00,WUHU216HW,2013-11-24 11:02:00,
2013-11-24 06:07:00,67.3,63.0,30.03,North,0,0.0,0.0,86,0.00,,,0.00,WUHU216HW,2013-11-24 11:07:00,
2013-11-24 06:12:00,67.0,62.7,30.03,North,0,0.0,0.0,86,0.00,,,0.00,WUHU216HW,2013-11-24 11:12:00,
2013-11-24 06:17:00,67.0,62.7,30.03,North,0,0.0,0.0,86,0.00,,,0.00,WUHU216HW,2013-11-24 11:17:00,
2013-11-24 06:22:00,66.6,62.3,30.04,North,0,0.0,0.0,86,0.00,,,0.00,WUHU216HW,2013-11-24 11:22:00,
2013-11-24 06:27:00,66.6,62.3,30.04,North,0,0.0,0.0,86,0.00,,,0.00,WUHU216HW,2013-11-24 11:27:00,
2013-11-24 06:32:00,66.4,62.1,30.04,North,0,0.0,0.0,86,0.00,,,0.00,WUHU216HW,2013-11-24 11:32:00,
2013-11-24 06:37:00,66.4,62.1,30.05,North,0,0.0,0.0,86,0.00,,,0.00,WUHU216HW,2013-11-24 11:37:00,
2013-11-24 06:42:00,66.2,61.9,30.05,North,0,0.0,0.0,86,0.00,,,0.00,WUHU216HW,2013-11-24 11:42:00,
2013-11-24 06:47:00,66.2,61.9,30.05,North,0,0.0,0.0,86,0.00,,,0.00,WUHU216HW,2013-11-24 11:47:00,
2013-11-24 06:52:00,66.2,61.6,30.05,North,0,0.0,0.0,85,0.00,,,0.00,WUHU216HW,2013-11-24 11:52:00,
2013-11-24 06:57:00,66.1,61.4,30.05,North,0,0.0,0.0,85,0.00,,,0.00,WUHU216HW,2013-11-24 11:57:00,
2013-11-24 07:02:00,66.1,61.4,30.05,North,0,0.0,0.0,85,0.00,,,0.00,WUHU216HW,2013-11-24 12:02:00,
2013-11-24 07:07:00,66.1,61.4,30.05,North,0,0.0,0.0,85,0.00,,,0.00,WUHU216HW,2013-11-24 12:07:00,
2013-11-24 07:12:00,65.9,60.9,30.06,North,0,0.0,0.0,84,0.00,,,0.00,WUHU216HW,2013-11-24 12:12:00,
2013-11-24 07:17:00,65.9,60.9,30.06,North,0,0.0,0.0,84,0.00,,,0.00,WUHU216HW,2013-11-24 12:17:00,
2013-11-24 07:22:00,65.9,60.9,30.07,North,0,0.0,0.0,84,0.00,,,0.00,WUHU216HW,2013-11-24 12:22:00,
2013-11-24 07:27:00,65.9,60.9,30.07,North,0,0.0,0.0,84,0.00,,,0.00,WUHU216HW,2013-11-24 12:27:00,
2013-11-24 07:32:00,65.7,60.4,30.07,North,0,0.0,0.0,83,0.00,,,0.00,WUHU216HW,2013-11-24 12:32:00,
2013-11-24 07:37:00,65.7,60.4,30.07,North,0,0.0,0.0,83,0.00,,,0.00,WUHU216HW,2013-11-24 12:37:00,
2013-11-24 07:42:00,65.7,60.4,30.07,North,0,0.0,0.0,83,0.00,,,0.00,WUHU216HW,2013-11-24 12:42:00,
2013-11-24 07:47:00,65.5,60.2,30.07,North,0,0.0,0.0,83,0.00,,,0.00,WUHU216HW,2013-11-24 12:47:00,
2013-11-24 07:52:00,65.5,60.2,30.07,North,0,0.0,0.0,83,0.00,,,0.00,WUHU216HW,2013-11-24 12:52:00,
2013-11-24 07:57:00,65.5,59.9,30.08,North,0,0.0,0.0,82,0.00,,,0.00,WUHU216HW,2013-11-24 12:57:00,
2013-11-24 08:02:00,65.5,60.2,30.08,North,0,0.0,0.0,83,0.00,,,0.00,WUHU216HW,2013-11-24 13:02:00,
2013-11-24 08:07:00,65.5,60.2,30.08,North,0,0.0,0.0,83,0.00,,,0.00,WUHU216HW,2013-11-24 13:07:00,
2013-11-24 08:12:00,65.3,60.0,30.08,North,0,0.0,0.0,83,0.00,,,0.00,WUHU216HW,2013-11-24 13:12:00,
2013-11-24 08:17:00,65.3,59.7,30.09,North,0,0.0,0.0,82,0.00,,,0.00,WUHU216HW,2013-11-24 13:17:00,
2013-11-24 08:22:00,65.3,59.7,30.09,North,0,0.0,0.0,82,0.00,,,0.00,WUHU216HW,2013-11-24 13:22:00,
2013-11-24 08:27:00,65.5,59.9,30.09,North,0,0.0,0.0,82,0.00,,,0.00,WUHU216HW,2013-11-24 13:27:00,
2013-11-24 08:32:00,65.3,59.7,30.09,North,0,0.0,0.0,82,0.00,,,0.00,WUHU216HW,2013-11-24 13:32:00,
2013-11-24 08:37:00,65.5,59.9,30.09,North,0,0.0,0.0,82,0.00,,,0.00,WUHU216HW,2013-11-24 13:37:00,
2013-11-24 08:42:00,65.5,59.9,30.09,North,0,0.0,0.0,82,0.00,,,0.00,WUHU216HW,2013-11-24 13:42:00,
2013-11-24 08:47:00,65.5,59.9,30.09,North,0,0.0,0.0,82,0.00,,,0.00,WUHU216HW,2013-11-24 13:47:00,
2013-11-24 08:52:00,65.5,59.9,30.10,North,0,0.0,0.0,82,0.00,,,0.00,WUHU216HW,2013-11-24 13:52:00,
2013-11-24 08:57:00,65.7,60.0,30.09,North,0,0.0,0.0,82,0.00,,,0.00,WUHU216HW,2013-11-24 13:57:00,
2013-11-24 09:02:00,65.7,60.0,30.09,North,0,0.0,0.0,82,0.00,,,0.00,WUHU216HW,2013-11-24 14:02:00,
2013-11-24 09:07:00,65.9,60.2,30.09,North,0,0.0,0.0,82,0.00,,,0.00,WUHU216HW,2013-11-24 14:07:00,
2013-11-24 09:12:00,65.9,60.2,30.10,North,0,0.0,0.0,82,0.00,,,0.00,WUHU216HW,2013-11-24 14:12:00,
2013-11-24 09:17:00,65.9,60.2,30.10,North,0,0.0,0.0,82,0.00,,,0.00,WUHU216HW,2013-11-24 14:17:00,
2013-11-24 09:22:00,65.9,60.2,30.10,North,0,0.0,0.0,82,0.00,,,0.00,WUHU216HW,2013-11-24 14:22:00,
2013-11-24 09:27:00,65.9,60.2,30.10,North,0,0.0,0.0,82,0.00,,,0.00,WUHU216HW,2013-11-24 14:27:00,
2013-11-24 09:32:00,65.9,60.2,30.10,North,0,0.0,0.0,82,0.00,,,0.00,WUHU216HW,2013-11-24 14:32:00,
2013-11-24 09:37:00,65.9,60.2,30.10,North,0,0.0,0.0,82,0.00,,,0.00,WUHU216HW,2013-11-24 14:37:00,
2013-11-24 09:42:00,65.9,60.2,30.11,North,0,0.0,0.0,82,0.00,,,0.00,WUHU216HW,2013-11-24 14:42:00,
2013-11-24 09:47:00,66.1,60.4,30.11,North,0,0.0,0.0,82,0.00,,,0.00,WUHU216HW,2013-11-24 14:47:00,
2013-11-24 09:52:00,66.2,60.3,30.11,North,0,0.0,0.0,81,0.00,,,0.00,WUHU216HW,2013-11-24 14:52:00,
2013-11-24 09:57:00,66.4,60.5,30.11,North,0,0.0,0.0,81,0.00,,,0.00,WUHU216HW,2013-11-24 14:57:00,
2013-11-24 10:02:00,66.6,60.3,30.11,North,0,0.0,0.0,80,0.00,,,0.00,WUHU216HW,2013-11-24 15:02:00,
2013-11-24 10:07:00,66.8,60.5,30.11,North,0,0.0,0.0,80,0.00,,,0.00,WUHU216HW,2013-11-24 15:07:00,
2013-11-24 10:12:00,67.0,60.7,30.11,North,0,0.0,0.0,80,0.00,,,0.00,WUHU216HW,2013-11-24 15:12:00,
2013-11-24 10:17:00,67.1,60.8,30.11,North,0,0.0,0.0,80,0.00,,,0.00,WUHU216HW,2013-11-24 15:17:00,
2013-11-24 10:22:00,67.3,61.0,30.11,North,0,0.0,0.0,80,0.00,,,0.00,WUHU216HW,2013-11-24 15:22:00,
2013-11-24 10:27:00,67.3,60.3,30.12,North,0,0.0,0.0,78,0.00,,,0.00,WUHU216HW,2013-11-24 15:27:00,
2013-11-24 10:32:00,67.3,60.3,30.12,North,0,0.0,0.0,78,0.00,,,0.00,WUHU216HW,2013-11-24 15:32:00,
2013-11-24 10:37:00,67.5,60.5,30.11,North,0,0.0,0.0,78,0.00,,,0.00,WUHU216HW,2013-11-24 15:37:00,
2013-11-24 10:42:00,67.5,60.5,30.11,North,0,0.0,0.0,78,0.00,,,0.00,WUHU216HW,2013-11-24 15:42:00,
2013-11-24 10:47:00,67.7,60.7,30.11,North,0,0.0,0.0,78,0.00,,,0.00,WUHU216HW,2013-11-24 15:47:00,
2013-11-24 10:52:00,67.9,60.9,30.11,North,0,0.0,0.0,78,0.00,,,0.00,WUHU216HW,2013-11-24 15:52:00,
2013-11-24 10:57:00,68.0,60.6,30.11,North,0,0.0,0.0,77,0.00,,,0.00,WUHU216HW,2013-11-24 15:57:00,
2013-11-24 11:02:00,68.0,60.6,30.12,North,0,0.0,0.0,77,0.00,,,0.00,WUHU216HW,2013-11-24 16:02:00,
2013-11-24 11:07:00,68.2,60.8,30.11,North,0,0.0,0.0,77,0.00,,,0.00,WUHU216HW,2013-11-24 16:07:00,
2013-11-24 11:12:00,68.2,60.8,30.11,North,0,0.0,0.0,77,0.00,,,0.00,WUHU216HW,2013-11-24 16:12:00,
2013-11-24 11:17:00,68.2,60.8,30.11,North,0,0.0,0.0,77,0.00,,,0.00,WUHU216HW,2013-11-24 16:17:00,
2013-11-24 11:22:00,68.4,60.9,30.11,North,0,0.0,0.0,77,0.00,,,0.00,WUHU216HW,2013-11-24 16:22:00,
2013-11-24 11:27:00,68.2,60.8,30.11,North,0,0.0,0.0,77,0.00,,,0.00,WUHU216HW,2013-11-24 16:27:00,
2013-11-24 11:32:00,68.2,60.8,30.11,North,0,0.0,0.0,77,0.00,,,0.00,WUHU216HW,2013-11-24 16:32:00,
2013-11-24 11:37:00,68.2,60.8,30.11,North,0,0.0,0.0,77,0.00,,,0.00,WUHU216HW,2013-11-24 16:37:00,
2013-11-24 11:42:00,68.0,60.6,30.11,North,0,0.0,0.0,77,0.00,,,0.00,WUHU216HW,2013-11-24 16:42:00,
2013-11-24 11:47:00,68.0,60.2,30.11,North,0,0.0,0.0,76,0.00,,,0.00,WUHU216HW,2013-11-24 16:47:00,
2013-11-24 11:52:00,67.9,60.0,30.11,North,0,0.0,0.0,76,0.00,,,0.00,WUHU216HW,2013-11-24 16:52:00,
2013-11-24 11:57:00,67.9,60.0,30.11,North,0,0.0,0.0,76,0.00,,,0.00,WUHU216HW,2013-11-24 16:57:00,
2013-11-24 12:02:00,67.7,59.9,30.11,North,0,0.0,0.0,76,0.00,,,0.00,WUHU216HW,2013-11-24 17:02:00,
2013-11-24 12:07:00,67.7,59.9,30.11,North,0,0.0,0.0,76,0.00,,,0.00,WUHU216HW,2013-11-24 17:07:00,
2013-11-24 12:12:00,67.7,59.9,30.11,North,0,0.0,0.0,76,0.00,,,0.00,WUHU216HW,2013-11-24 17:12:00,
2013-11-24 12:17:00,67.7,59.9,30.12,North,0,0.0,0.0,76,0.00,,,0.00,WUHU216HW,2013-11-24 17:17:00,
2013-11-24 12:22:00,67.7,59.5,30.11,North,0,0.0,0.0,75,0.00,,,0.00,WUHU216HW,2013-11-24 17:22:00,
2013-11-24 12:27:00,67.5,59.3,30.11,North,0,0.0,0.0,75,0.00,,,0.00,WUHU216HW,2013-11-24 17:27:00,
2013-11-24 12:32:00,67.5,59.3,30.11,North,0,0.0,0.0,75,0.00,,,0.00,WUHU216HW,2013-11-24 17:32:00,
2013-11-24 12:37:00,67.3,59.1,30.11,North,0,0.0,0.0,75,0.00,,,0.00,WUHU216HW,2013-11-24 17:37:00,
2013-11-24 12:42:00,67.3,59.1,30.11,North,0,0.0,0.0,75,0.00,,,0.00,WUHU216HW,2013-11-24 17:42:00,
2013-11-24 12:47:00,67.3,59.1,30.11,North,0,0.0,0.0,75,0.00,,,0.00,WUHU216HW,2013-11-24 17:47:00,
2013-11-24 12:52:00,67.3,58.8,30.10,North,0,0.0,0.0,74,0.00,,,0.00,WUHU216HW,2013-11-24 17:52:00,
2013-11-24 12:57:00,67.3,58.8,30.11,North,0,0.0,0.0,74,0.00,,,0.00,WUHU216HW,2013-11-24 17:57:00,
2013-11-24 13:02:00,67.3,58.8,30.10,North,0,0.0,0.0,74,0.00,,,0.00,WUHU216HW,2013-11-24 18:02:00,
2013-11-24 13:07:00,67.3,59.1,30.11,North,0,0.0,0.0,75,0.00,,,0.00,WUHU216HW,2013-11-24 18:07:00,
2013-11-24 13:12:00,67.3,58.8,30.11,North,0,0.0,0.0,74,0.00,,,0.00,WUHU216HW,2013-11-24 18:12:00,
2013-11-24 13:17:00,67.3,58.8,30.11,North,0,0.0,0.0,74,0.00,,,0.00,WUHU216HW,2013-11-24 18:17:00,
2013-11-24 13:22:00,67.1,58.6,30.11,North,0,0.0,0.0,74,0.00,,,0.00,WUHU216HW,2013-11-24 18:22:00,
2013-11-24 13:27:00,67.0,58.4,30.11,North,0,0.0,0.0,74,0.00,,,0.00,WUHU216HW,2013-11-24 18:27:00,
2013-11-24 13:32:00,67.0,58.4,30.11,North,0,0.0,0.0,74,0.00,,,0.00,WUHU216HW,2013-11-24 18:32:00,
2013-11-24 13:37:00,67.0,58.4,30.11,North,0,0.0,0.0,74,0.00,,,0.00,WUHU216HW,2013-11-24 18:37:00,
2013-11-24 13:42:00,66.8,58.2,30.11,North,0,0.0,0.0,74,0.00,,,0.00,WUHU216HW,2013-11-24 18:42:00,
2013-11-24 13:47:00,66.6,58.1,30.11,North,0,0.0,0.0,74,0.00,,,0.00,WUHU216HW,2013-11-24 18:47:00,
2013-11-24 13:52:00,66.4,57.9,30.12,North,0,0.0,0.0,74,0.00,,,0.00,WUHU216HW,2013-11-24 18:52:00,
2013-11-24 13:57:00,66.2,57.3,30.12,North,0,0.0,0.0,73,0.00,,,0.00,WUHU216HW,2013-11-24 18:57:00,
2013-11-24 14:02:00,66.1,57.5,30.12,North,0,0.0,0.0,74,0.00,,,0.00,WUHU216HW,2013-11-24 19:02:00,
2013-11-24 14:07:00,65.9,57.3,30.12,North,0,0.0,0.0,74,0.00,,,0.00,WUHU216HW,2013-11-24 19:07:00,
2013-11-24 14:12:00,65.9,57.3,30.12,North,0,0.0,0.0,74,0.00,,,0.00,WUHU216HW,2013-11-24 19:12:00,
2013-11-24 14:17:00,65.9,57.3,30.12,North,0,0.0,0.0,74,0.00,,,0.00,WUHU216HW,2013-11-24 19:17:00,
2013-11-24 14:22:00,65.7,57.2,30.12,North,0,0.0,0.0,74,0.00,,,0.00,WUHU216HW,2013-11-24 19:22:00,
2013-11-24 14:27:00,65.5,57.0,30.12,North,0,0.0,0.0,74,0.00,,,0.00,WUHU216HW,2013-11-24 19:27:00,
2013-11-24 14:32:00,65.5,57.0,30.12,North,0,0.0,0.0,74,0.00,,,0.00,WUHU216HW,2013-11-24 19:32:00,
2013-11-24 14:37:00,65.3,56.8,30.12,North,0,0.0,0.0,74,0.00,,,0.00,WUHU216HW,2013-11-24 19:37:00,
2013-11-24 14:42:00,65.2,56.7,30.13,North,0,0.0,0.0,74,0.00,,,0.00,WUHU216HW,2013-11-24 19:42:00,
2013-11-24 14:47:00,65.0,56.5,30.13,North,0,0.0,0.0,74,0.00,,,0.00,WUHU216HW,2013-11-24 19:47:00,
2013-11-24 14:52:00,64.8,56.4,30.13,North,0,0.0,0.0,74,0.00,,,0.00,WUHU216HW,2013-11-24 19:52:00,
2013-11-24 14:57:00,64.6,56.2,30.13,North,0,0.0,0.0,74,0.00,,,0.00,WUHU216HW,2013-11-24 19:57:00,
2013-11-24 15:02:00,64.4,56.0,30.13,North,0,0.0,0.0,74,0.00,,,0.00,WUHU216HW,2013-11-24 20:02:00,
2013-11-24 15:07:00,64.4,56.0,30.13,North,0,0.0,0.0,74,0.00,,,0.00,WUHU216HW,2013-11-24 20:07:00,
2013-11-24 15:12:00,64.4,56.0,30.13,North,0,0.0,0.0,74,0.00,,,0.00,WUHU216HW,2013-11-24 20:12:00,
2013-11-24 15:17:00,64.3,55.8,30.13,North,0,0.0,0.0,74,0.00,,,0.00,WUHU216HW,2013-11-24 20:17:00,
2013-11-24 15:22:00,64.1,55.6,30.13,North,0,0.0,0.0,74,0.00,,,0.00,WUHU216HW,2013-11-24 20:22:00,
2013-11-24 15:27:00,63.9,55.4,30.13,North,0,0.0,0.0,74,0.00,,,0.00,WUHU216HW,2013-11-24 20:27:00,
2013-11-24 15:32:00,63.9,55.4,30.13,North,0,0.0,0.0,74,0.00,,,0.00,WUHU216HW,2013-11-24 20:32:00,
2013-11-24 15:37:00,63.7,55.3,30.13,North,0,0.0,0.0,74,0.00,,,0.00,WUHU216HW,2013-11-24 20:37:00,
2013-11-24 15:42:00,63.7,55.3,30.13,North,0,0.0,0.0,74,0.00,,,0.00,WUHU216HW,2013-11-24 20:42:00,
2013-11-24 15:47:00,63.7,55.3,30.13,North,0,0.0,0.0,74,0.00,,,0.00,WUHU216HW,2013-11-24 20:47:00,
2013-11-24 15:52:00,63.5,55.1,30.14,North,0,0.0,0.0,74,0.00,,,0.00,WUHU216HW,2013-11-24 20:52:00,
2013-11-24 15:57:00,63.4,54.9,30.13,North,0,0.0,0.0,74,0.00,,,0.00,WUHU216HW,2013-11-24 20:57:00,
2013-11-24 16:02:00,63.4,54.9,30.13,North,0,0.0,0.0,74,0.00,,,0.00,WUHU216HW,2013-11-24 21:02:00,
2013-11-24 16:07:00,63.4,54.9,30.13,North,0,0.0,0.0,74,0.00,,,0.00,WUHU216HW,2013-11-24 21:07:00,
2013-11-24 16:12:00,63.4,54.9,30.13,North,0,0.0,0.0,74,0.00,,,0.00,WUHU216HW,2013-11-24 21:12:00,
2013-11-24 16:17:00,63.4,54.9,30.14,North,0,0.0,0.0,74,0.00,,,0.00,WUHU216HW,2013-11-24 21:17:00,
2013-11-24 16:22:00,63.4,54.9,30.14,North,0,0.0,0.0,74,0.00,,,0.00,WUHU216HW,2013-11-24 21:22:00,
2013-11-24 16:27:00,63.4,54.9,30.14,North,0,0.0,0.0,74,0.00,,,0.00,WUHU216HW,2013-11-24 21:27:00,
2013-11-24 16:32:00,63.2,54.7,30.13,North,0,0.0,0.0,74,0.00,,,0.00,WUHU216HW,2013-11-24 21:32:00,
2013-11-24 16:37:00,63.2,54.7,30.14,North,0,0.0,0.0,74,0.00,,,0.00,WUHU216HW,2013-11-24 21:37:00,
2013-11-24 16:42:00,63.0,54.5,30.14,North,0,0.0,0.0,74,0.00,,,0.00,WUHU216HW,2013-11-24 21:42:00,
2013-11-24 16:47:00,63.0,54.5,30.14,North,0,0.0,0.0,74,0.00,,,0.00,WUHU216HW,2013-11-24 21:47:00,
2013-11-24 16:52:00,63.0,54.5,30.15,North,0,0.0,0.0,74,0.00,,,0.00,WUHU216HW,2013-11-24 21:52:00,
2013-11-24 16:57:00,63.0,54.5,30.15,North,0,0.0,0.0,74,0.00,,,0.00,WUHU216HW,2013-11-24 21:57:00,
2013-11-24 17:02:00,63.0,54.5,30.15,North,0,0.0,0.0,74,0.00,,,0.00,WUHU216HW,2013-11-24 22:02:00,
2013-11-24 17:07:00,63.0,54.5,30.15,North,0,0.0,0.0,74,0.00,,,0.00,WUHU216HW,2013-11-24 22:07:00,
2013-11-24 17:12:00,62.8,54.4,30.15,North,0,0.0,0.0,74,0.00,,,0.00,WUHU216HW,2013-11-24 22:12:00,
2013-11-24 17:17:00,62.8,54.4,30.15,North,0,0.0,0.0,74,0.00,,,0.00,WUHU216HW,2013-11-24 22:17:00,
2013-11-24 17:22:00,62.8,54.4,30.15,North,0,0.0,0.0,74,0.00,,,0.00,WUHU216HW,2013-11-24 22:22:00,
2013-11-24 17:27:00,62.8,54.4,30.16,North,0,0.0,0.0,74,0.00,,,0.00,WUHU216HW,2013-11-24 22:27:00,
2013-11-24 17:32:00,62.8,54.4,30.16,North,0,0.0,0.0,74,0.00,,,0.00,WUHU216HW,2013-11-24 22:32:00,
2013-11-24 17:37:00,62.8,54.4,30.16,North,0,0.0,0.0,74,0.00,,,0.00,WUHU216HW,2013-11-24 22:37:00,
2013-11-24 17:42:00,62.6,53.8,30.16,North,0,0.0,0.0,73,0.00,,,0.00,WUHU216HW,2013-11-24 22:42:00,
2013-11-24 17:47:00,62.6,53.8,30.16,North,0,0.0,0.0,73,0.00,,,0.00,WUHU216HW,2013-11-24 22:47:00,
2013-11-24 17:52:00,62.5,53.6,30.16,North,0,0.0,0.0,73,0.00,,,0.00,WUHU216HW,2013-11-24 22:52:00,
2013-11-24 17:57:00,62.5,53.6,30.16,North,0,0.0,0.0,73,0.00,,,0.00,WUHU216HW,2013-11-24 22:57:00,
2013-11-24 18:02:00,62.5,53.6,30.16,North,0,0.0,0.0,73,0.00,,,0.00,WUHU216HW,2013-11-24 23:02:00,
2013-11-24 18:07:00,62.5,53.6,30.16,North,0,0.0,0.0,73,0.00,,,0.00,WUHU216HW,2013-11-24 23:07:00,
2013-11-24 18:12:00,62.5,53.6,30.17,North,0,0.0,0.0,73,0.00,,,0.00,WUHU216HW,2013-11-24 23:12:00,
2013-11-24 18:17:00,62.5,53.6,30.17,North,0,0.0,0.0,73,0.00,,,0.00,WUHU216HW,2013-11-24 23:17:00,
2013-11-24 18:22:00,62.5,53.6,30.17,North,0,0.0,0.0,73,0.00,,,0.00,WUHU216HW,2013-11-24 23:22:00,
2013-11-24 18:27:00,62.3,53.5,30.17,North,0,0.0,0.0,73,0.00,,,0.00,WUHU216HW,2013-11-24 23:27:00,
2013-11-24 18:32:00,62.3,53.5,30.17,North,0,0.0,0.0,73,0.00,,,0.00,WUHU216HW,2013-11-24 23:32:00,
2013-11-24 18:37:00,62.3,53.5,30.17,North,0,0.0,0.0,73,0.00,,,0.00,WUHU216HW,2013-11-24 23:37:00,
2013-11-24 18:42:00,62.3,53.5,30.17,North,0,0.0,0.0,73,0.00,,,0.00,WUHU216HW,2013-11-24 23:42:00,
2013-11-24 18:47:00,62.1,53.4,30.17,North,0,0.0,0.0,73,0.00,,,0.00,WUHU216HW,2013-11-24 23:47:00,
2013-11-24 18:52:00,62.1,53.7,30.17,North,0,0.0,0.0,74,0.00,,,0.00,WUHU216HW,2013-11-24 23:52:00,
2013-11-24 18:57:00,62.1,53.7,30.17,North,0,0.0,0.0,74,0.00,,,0.00,WUHU216HW,2013-11-24 23:57:00,
2013-11-24 19:02:00,62.3,53.5,30.17,North,0,0.0,0.0,73,0.00,,,0.00,WUHU216HW,2013-11-25 00:02:00,
2013-11-24 19:07:00,62.1,53.4,30.17,North,0,0.0,0.0,73,0.00,,,0.00,WUHU216HW,2013-11-25 00:07:00,
2013-11-24 19:12:00,62.1,53.4,30.17,North,0,0.0,0.0,73,0.00,,,0.00,WUHU216HW,2013-11-25 00:12:00,
2013-11-24 19:17:00,62.1,53.4,30.18,North,0,0.0,0.0,73,0.00,,,0.00,WUHU216HW,2013-11-25 00:17:00,
2013-11-24 19:22:00,61.9,53.2,30.18,North,0,0.0,0.0,73,0.00,,,0.00,WUHU216HW,2013-11-25 00:22:00,
2013-11-24 19:27:00,61.9,53.2,30.18,North,0,0.0,0.0,73,0.00,,,0.00,WUHU216HW,2013-11-25 00:27:00,
2013-11-24 19:32:00,61.9,53.6,30.18,North,0,0.0,0.0,74,0.00,,,0.00,WUHU216HW,2013-11-25 00:32:00,
2013-11-24 19:37:00,61.9,53.6,30.18,North,0,0.0,0.0,74,0.00,,,0.00,WUHU216HW,2013-11-25 00:37:00,
2013-11-24 19:42:00,61.9,53.2,30.18,North,0,0.0,0.0,73,0.00,,,0.00,WUHU216HW,2013-11-25 00:42:00,
2013-11-24 19:47:00,61.9,53.2,30.18,North,0,0.0,0.0,73,0.00,,,0.00,WUHU216HW,2013-11-25 00:47:00,
2013-11-24 19:52:00,61.9,53.2,30.18,North,0,0.0,0.0,73,0.00,,,0.00,WUHU216HW,2013-11-25 00:52:00,
2013-11-24 19:57:00,61.9,53.2,30.18,North,0,0.0,0.0,73,0.00,,,0.00,WUHU216HW,2013-11-25 00:57:00,
2013-11-24 20:02:00,61.9,53.2,30.18,North,0,0.0,0.0,73,0.00,,,0.00,WUHU216HW,2013-11-25 01:02:00,
2013-11-24 20:07:00,61.9,53.2,30.18,North,0,0.0,0.0,73,0.00,,,0.00,WUHU216HW,2013-11-25 01:07:00,
2013-11-24 20:12:00,61.9,53.2,30.18,North,0,0.0,0.0,73,0.00,,,0.00,WUHU216HW,2013-11-25 01:12:00,
2013-11-24 20:17:00,62.1,53.4,30.19,North,0,0.0,0.0,73,0.00,,,0.00,WUHU216HW,2013-11-25 01:17:00,
2013-11-24 20:22:00,62.1,53.4,30.19,North,0,0.0,0.0,73,0.00,,,0.00,WUHU216HW,2013-11-25 01:22:00,
2013-11-24 20:27:00,62.1,53.4,30.19,North,0,0.0,0.0,73,0.00,,,0.00,WUHU216HW,2013-11-25 01:27:00,
2013-11-24 20:32:00,62.1,53.4,30.19,North,0,0.0,0.0,73,0.00,,,0.00,WUHU216HW,2013-11-25 01:32:00,
2013-11-24 20:37:00,62.1,53.4,30.19,North,0,0.0,0.0,73,0.00,,,0.00,WUHU216HW,2013-11-25 01:37:00,
2013-11-24 20:42:00,62.1,53.4,30.19,North,0,0.0,0.0,73,0.00,,,0.00,WUHU216HW,2013-11-25 01:42:00,
2013-11-24 20:47:00,62.3,53.5,30.19,North,0,0.0,0.0,73,0.00,,,0.00,WUHU216HW,2013-11-25 01:47:00,
2013-11-24 20:52:00,62.3,53.5,30.19,North,0,0.0,0.0,73,0.00,,,0.00,WUHU216HW,2013-11-25 01:52:00,
2013-11-24 20:57:00,62.3,53.5,30.19,North,0,0.0,0.0,73,0.00,,,0.00,WUHU216HW,2013-11-25 01:57:00,
2013-11-24 21:02:00,62.3,53.5,30.19,North,0,0.0,0.0,73,0.00,,,0.00,WUHU216HW,2013-11-25 02:02:00,
2013-11-24 21:07:00,62.3,53.5,30.19,North,0,0.0,0.0,73,0.00,,,0.00,WUHU216HW,2013-11-25 02:07:00,
2013-11-24 21:12:00,62.3,53.5,30.19,North,0,0.0,0.0,73,0.00,,,0.00,WUHU216HW,2013-11-25 02:12:00,
2013-11-24 21:17:00,62.3,53.5,30.19,North,0,0.0,0.0,73,0.00,,,0.00,WUHU216HW,2013-11-25 02:17:00,
2013-11-24 21:22:00,62.3,53.5,30.19,North,0,0.0,0.0,73,0.00,,,0.00,WUHU216HW,2013-11-25 02:22:00,
2013-11-24 21:27:00,62.3,53.5,30.19,North,0,0.0,0.0,73,0.00,,,0.00,WUHU216HW,2013-11-25 02:27:00,
2013-11-24 21:32:00,62.3,53.5,30.19,North,0,0.0,0.0,73,0.00,,,0.00,WUHU216HW,2013-11-25 02:32:00,
2013-11-24 21:37:00,62.5,53.6,30.19,North,0,0.0,0.0,73,0.00,,,0.00,WUHU216HW,2013-11-25 02:37:00,
2013-11-24 21:42:00,62.5,53.6,30.19,North,0,0.0,0.0,73,0.00,,,0.00,WUHU216HW,2013-11-25 02:42:00,
2013-11-24 21:47:00,62.5,53.6,30.19,North,0,0.0,0.0,73,0.00,,,0.00,WUHU216HW,2013-11-25 02:47:00,
2013-11-24 21:52:00,62.5,53.6,30.19,North,0,0.0,0.0,73,0.00,,,0.00,WUHU216HW,2013-11-25 02:52:00,
2013-11-24 21:57:00,62.5,53.6,30.19,North,0,0.0,0.0,73,0.00,,,0.00,WUHU216HW,2013-11-25 02:57:00,
2013-11-24 22:02:00,62.6,53.8,30.19,North,0,0.0,0.0,73,0.00,,,0.00,WUHU216HW,2013-11-25 03:02:00,
2013-11-24 22:07:00,62.6,53.8,30.19,North,0,0.0,0.0,73,0.00,,,0.00,WUHU216HW,2013-11-25 03:07:00,
2013-11-24 22:12:00,62.6,53.8,30.19,North,0,0.0,0.0,73,0.00,,,0.00,WUHU216HW,2013-11-25 03:12:00,
2013-11-24 22:17:00,62.6,53.8,30.19,North,0,0.0,0.0,73,0.00,,,0.00,WUHU216HW,2013-11-25 03:17:00,
2013-11-24 22:22:00,62.8,54.0,30.19,North,0,0.0,0.0,73,0.00,,,0.00,WUHU216HW,2013-11-25 03:22:00,
2013-11-24 22:27:00,62.8,54.4,30.20,North,0,0.0,0.0,74,0.00,,,0.00,WUHU216HW,2013-11-25 03:27:00,
2013-11-24 22:32:00,63.0,54.2,30.20,North,0,0.0,0.0,73,0.00,,,0.00,WUHU216HW,2013-11-25 03:32:00,
2013-11-24 22:37:00,63.0,54.2,30.20,North,0,0.0,0.0,73,0.00,,,0.00,WUHU216HW,2013-11-25 03:37:00,
2013-11-24 22:42:00,63.0,54.2,30.20,North,0,0.0,0.0,73,0.00,,,0.00,WUHU216HW,2013-11-25 03:42:00,
2013-11-24 22:47:00,63.0,54.2,30.20,North,0,0.0,0.0,73,0.00,,,0.00,WUHU216HW,2013-11-25 03:47:00,
2013-11-24 22:52:00,63.0,54.2,30.19,North,0,0.0,0.0,73,0.00,,,0.00,WUHU216HW,2013-11-25 03:52:00,
2013-11-24 22:57:00,63.0,54.2,30.19,North,0,0.0,0.0,73,0.00,,,0.00,WUHU216HW,2013-11-25 03:57:00,
2013-11-24 23:02:00,63.0,54.2,30.19,North,0,0.0,0.0,73,0.00,,,0.00,WUHU216HW,2013-11-25 04:02:00,
2013-11-24 23:07:00,63.0,54.2,30.19,North,0,0.0,0.0,73,0.00,,,0.00,WUHU216HW,2013-11-25 04:07:00,
2013-11-24 23:12:00,63.0,53.8,30.19,North,0,0.0,0.0,72,0.00,,,0.00,WUHU216HW,2013-11-25 04:12:00,
2013-11-24 23:17:00,63.2,54.0,30.19,North,0,0.0,0.0,72,0.00,,,0.00,WUHU216HW,2013-11-25 04:17:00,
2013-11-24 23:22:00,63.2,54.0,30.18,North,0,0.0,0.0,72,0.00,,,0.00,WUHU216HW,2013-11-25 04:22:00,
2013-11-24 23:27:00,63.4,54.2,30.19,North,0,0.0,0.0,72,0.00,,,0.00,WUHU216HW,2013-11-25 04:27:00,
2013-11-24 23:32:00,63.4,53.8,30.19,North,0,0.0,0.0,71,0.00,,,0.00,WUHU216HW,2013-11-25 04:32:00,
2013-11-24 23:37:00,63.4,53.8,30.19,North,0,0.0,0.0,71,0.00,,,0.00,WUHU216HW,2013-11-25 04:37:00,
2013-11-24 23:42:00,63.4,53.8,30.19,North,0,0.0,0.0,71,0.00,,,0.00,WUHU216HW,2013-11-25 04:42:00,
2013-11-24 23:47:00,63.5,54.0,30.19,North,0,0.0,0.0,71,0.00,,,0.00,WUHU216HW,2013-11-25 04:47:00,
2013-11-24 23:52:00,63.5,54.0,30.19,North,0,0.0,0.0,71,0.00,,,0.00,WUHU216HW,2013-11-25 04:52:00,
2013-11-24 23:57:00,63.5,54.0,30.19,North,0,0.0,0.0,71,0.00,,,0.00,WUHU216HW,2013-11-25 04:57:00,